Weather in Staryy Buyan

Russia / Samara Oblast     53°39′00″N   50°14′30″E
temp.,
°C
wind,
m/s
gust,
m/s
humid.,
%
clouds,
%
prec.,
mm/h
press.,
hPa
HPBL,
m
28 february, sun
sun2801:00−12nnw6129393 0.1 1000359
04:00−14nnw7129397 0.1 1002374
07:00−16nnw6129499 0.1 1004358
10:00−16nw7119499 0.3 1006345
13:00−14nw699299 0.1 1008419
16:00−13nw699299 0.3 1010491
19:00−14nnw51094100 0.2 1012377
22:00−15nnw599495 0.3 1014321
1 march, mon
mon101:00−19nnw359762 0.0 101687
04:00−20nw469841 0.0 1018114
07:00−22nnw359740 0.0 101986
10:00−19nnw479522 0.0 1022240
13:00−16nw359246 0.0 1022278
16:00−15wnw469252 0.0 1022354
19:00−19w239732 0.0 102220
22:00−19sw239716 0.0 102221
2 march, tue
tue201:00−17ssw349754 0.0 101998
04:00−15ssw489677 0.0 1016199
07:00−11ssw51193100 0.0 1012388
10:00−8sw71293100 0.5 1009503
13:00−2sw81394100 0.6 1005692
16:000wsw71395100 1.1 1003747
19:000w5998100 0.5 1002473
22:00−2w4893100 1.3 1002193
3 march, wed
wed301:00−6wnw479532 0.0 1002130
04:00−7wnw479622 0.0 1003109
07:00−7wnw479658 0.0 1003171
10:00−5nw489475 0.1 1005300
13:00−4wnw479490 0.0 1005348
16:00−3nw589081 0.0 1006606
19:00−7nw479497 0.1 1007140
22:00−10wnw469256 0.1 100985
4 march, thu
thu401:00−11wnw49963 0.0 1010155
04:00−11wnw489633 0.0 1010140
07:00−13wsw349520 0.0 101064
10:00−8wsw6119110 0.0 1009336
13:00−5sw7139151 0.0 1007662
16:00−2sw9158875 0.1 1004880
19:00−1sw101688100 0.1 1001933
22:00−1wsw91688100 0.3 10001072